Simultaneous Nadir Overpasses (SNOs) Predictions

Prediction of SNOs between NOAA-19 and NPP Satellite Orbit:

Table of predicted SNOs for the next 14.0 days since TLE Epoch: 6/29/2018
Index Date (NOAA-19) Time (NOAA-19) Lat,Lon (NOAA-19) SZA (NOAA-19 ) Date (NPP) Time (NPP) Lat,Lon (NPP) SZA (NPP ) Distance(km) Time Diff (sec)
1 07/09/2018 00:20:49 -80.51, -50.43 118.76 07/09/2018 00:21:56 -80.52, -50.51 118.77 2.25 67
2 07/09/2018 01:11:50 80.50, 116.76 61.26 07/09/2018 01:12:41 80.52, 116.85 61.23 2.39 51
3 07/09/2018 02:02:50 -80.51, -75.89 118.75 07/09/2018 02:03:26 -80.52, -75.92 118.76 1.87 36
4 07/09/2018 02:53:51 80.51, 91.31 61.26 07/09/2018 02:54:11 80.52, 91.44 61.25 2.99 20
5 07/09/2018 03:44:51 -80.51,-101.35 118.75 07/09/2018 03:44:56 -80.53,-101.33 118.74 1.85 5
6 07/09/2018 04:35:51 80.53, 66.20 61.23 07/09/2018 04:35:41 80.52, 66.03 61.26 3.11 10
7 07/09/2018 05:26:52 -80.51,-126.81 118.74 07/09/2018 05:26:26 -80.53,-126.75 118.73 2.21 26
8 07/09/2018 06:17:52 80.53, 40.74 61.24 07/09/2018 06:17:11 80.53, 40.61 61.28 2.38 41
9 07/09/2018 07:08:53 -80.52,-152.27 118.74 07/09/2018 07:07:56 -80.53,-152.16 118.71 2.79 57




NCC Satellite Simultaneous Nadir Overpasses (SNOs) Prediction Service
